Radiation Dose at Monitoring Post of Fukushima Daini Nuclear Power Station
Date,Time,MP-1(microSv/h),MP-2(microSv/h),MP-3(microSv/h),MP-4(microSv/h),MP-5(microSv/h),MP-6(microSv/h),MP-7(microSv/h),Wind Direction,Wind Velocity(m/s),Rain
2018/11/07,00:00,0.305,0.186,0.298,0.288,0.277,0.149,0.093,north,8.2,No
2018/11/07,00:10,0.304,0.188,0.300,0.287,0.276,0.151,0.093,north,6.6,No
2018/11/07,00:20,0.305,0.187,0.299,0.288,0.278,0.151,0.092,north,6.4,No
2018/11/07,00:30,0.302,0.187,0.300,0.286,0.277,0.150,0.092,north,6.7,No
2018/11/07,00:40,0.305,0.188,0.300,0.289,0.278,0.149,0.093,north,6.1,No
2018/11/07,00:50,0.302,0.187,0.298,0.288,0.276,0.152,0.093,north,6.6,No
2018/11/07,01:00,0.304,0.188,0.299,0.289,0.280,0.151,0.093,north,7.6,No
2018/11/07,01:10,0.304,0.187,0.298,0.288,0.276,0.152,0.093,north,7.8,No
2018/11/07,01:20,0.304,0.188,0.300,0.288,0.279,0.151,0.093,north,7.4,No
2018/11/07,01:30,0.306,0.188,0.299,0.289,0.277,0.152,0.093,north,8.2,No
2018/11/07,01:40,0.304,0.187,0.301,0.287,0.277,0.151,0.093,north,8.4,No
2018/11/07,01:50,0.305,0.188,0.300,0.289,0.278,0.151,0.093,north,8.6,No
2018/11/07,02:00,0.304,0.187,0.300,0.289,0.276,0.150,0.093,north,8.5,No
2018/11/07,02:10,0.305,0.189,0.301,0.289,0.279,0.150,0.093,north,8.3,No
2018/11/07,02:20,0.304,0.188,0.300,0.288,0.276,0.151,0.093,north-northwest,7.5,No
2018/11/07,02:30,0.305,0.188,0.302,0.289,0.279,0.151,0.094,north,7.6,No
2018/11/07,02:40,0.306,0.188,0.301,0.288,0.278,0.152,0.093,north,9.5,No
2018/11/07,02:50,0.303,0.188,0.300,0.289,0.279,0.150,0.094,north,8.4,No
2018/11/07,03:00,0.306,0.189,0.300,0.289,0.276,0.152,0.093,north,9.5,No
2018/11/07,03:10,0.304,0.187,0.301,0.289,0.277,0.151,0.093,north,9.2,No
2018/11/07,03:20,0.306,0.188,0.302,0.290,0.278,0.151,0.093,north,9.0,No
2018/11/07,03:30,0.306,0.188,0.302,0.289,0.277,0.152,0.093,north,9.8,No
2018/11/07,03:40,0.306,0.188,0.301,0.288,0.280,0.151,0.094,north-northwest,9.6,No
2018/11/07,03:50,0.306,0.188,0.302,0.287,0.278,0.151,0.093,north-northwest,8.5,No
2018/11/07,04:00,0.304,0.188,0.300,0.288,0.279,0.151,0.093,north-northwest,8.1,No
2018/11/07,04:10,0.307,0.189,0.302,0.290,0.277,0.152,0.094,north,9.6,No
2018/11/07,04:20,0.305,0.189,0.300,0.289,0.279,0.151,0.094,north,9.5,No
2018/11/07,04:30,0.306,0.188,0.302,0.290,0.279,0.150,0.093,north,9.3,No
2018/11/07,04:40,0.307,0.187,0.300,0.288,0.276,0.151,0.094,north,8.7,No
2018/11/07,04:50,0.306,0.188,0.302,0.289,0.280,0.151,0.094,north,9.2,No
2018/11/07,05:00,0.307,0.188,0.302,0.291,0.277,0.152,0.093,north,8.2,No
2018/11/07,05:10,0.305,0.189,0.302,0.287,0.278,0.151,0.094,north-northwest,9.5,No
2018/11/07,05:20,0.307,0.188,0.302,0.288,0.278,0.151,0.093,north-northwest,10.0,No
2018/11/07,05:30,0.305,0.189,0.300,0.288,0.276,0.151,0.093,north,11.5,No
2018/11/07,05:40,0.307,0.187,0.301,0.289,0.279,0.152,0.093,north,11.7,No
2018/11/07,05:50,0.305,0.188,0.300,0.289,0.278,0.151,0.094,north,10.4,No
2018/11/07,06:00,0.305,0.189,0.300,0.287,0.278,0.151,0.094,north,10.1,No
2018/11/07,06:10,0.308,0.187,0.303,0.290,0.278,0.151,0.093,north,9.8,No
2018/11/07,06:20,0.306,0.188,0.301,0.289,0.278,0.152,0.092,north,8.1,No
2018/11/07,06:30,0.307,0.187,0.301,0.289,0.279,0.151,0.094,north,8.3,No
2018/11/07,06:40,0.306,0.188,0.300,0.291,0.277,0.151,0.094,north,8.5,No
2018/11/07,06:50,0.305,0.188,0.300,0.288,0.278,0.150,0.093,north,9.6,No
2018/11/07,07:00,0.306,0.189,0.300,0.289,0.278,0.152,0.093,north,10.0,No
2018/11/07,07:10,0.306,0.188,0.301,0.288,0.276,0.151,0.092,north,11.2,No
2018/11/07,07:20,0.306,0.188,0.301,0.288,0.278,0.152,0.093,north,10.4,No
2018/11/07,07:30,0.307,0.187,0.302,0.289,0.278,0.152,0.093,north,10.0,No
2018/11/07,07:40,0.305,0.189,0.302,0.288,0.277,0.152,0.093,north,10.0,No
2018/11/07,07:50,0.307,0.188,0.301,0.287,0.277,0.151,0.093,north-northwest,9.5,No
2018/11/07,08:00,0.304,0.188,0.301,0.289,0.277,0.150,0.092,north,8.1,No
2018/11/07,08:10,0.306,0.189,0.301,0.287,0.279,0.152,0.093,north,9.2,No
2018/11/07,08:20,0.306,0.189,0.302,0.290,0.276,0.151,0.093,north,9.0,No
2018/11/07,08:30,0.307,0.187,0.301,0.288,0.279,0.150,0.092,north,8.1,No
2018/11/07,08:40,0.307,0.188,0.302,0.289,0.276,0.152,0.093,north,7.7,No
2018/11/07,08:50,0.307,0.188,0.302,0.286,0.278,0.152,0.093,north,7.9,No
2018/11/07,09:00,0.306,0.188,0.301,0.288,0.277,0.151,0.092,north,9.2,No
2018/11/07,09:10,0.305,0.187,0.301,0.286,0.277,0.151,0.092,north,8.8,No
2018/11/07,09:20,0.308,0.187,0.301,0.290,0.277,0.152,0.092,north,7.8,No
2018/11/07,09:30,0.307,0.188,0.302,0.289,0.277,0.151,0.093,north,7.3,No
2018/11/07,09:40,0.306,0.188,0.301,0.290,0.279,0.151,0.094,north,8.8,No
2018/11/07,09:50,0.306,0.188,0.302,0.289,0.277,0.150,0.092,north,9.5,No
2018/11/07,10:00,0.307,0.187,0.303,0.288,0.277,0.151,0.094,north,7.3,No
2018/11/07,10:10,0.303,0.188,0.299,0.289,0.277,0.151,0.093,north,7.7,No
2018/11/07,10:20,0.307,0.187,0.302,0.287,0.274,0.151,0.093,north-northeast,7.6,No
2018/11/07,10:30,0.304,0.188,0.301,0.290,0.279,0.152,0.093,north,8.3,No
2018/11/07,10:40,0.307,0.186,0.302,0.288,0.277,0.151,0.092,north,8.8,No
2018/11/07,10:50,0.306,0.187,0.301,0.286,0.275,0.152,0.092,north,6.9,No
2018/11/07,11:00,0.303,0.188,0.301,0.288,0.279,0.151,0.094,north-northeast,7.4,No
2018/11/07,11:10,0.307,0.189,0.300,0.289,0.277,0.152,0.092,north,6.8,No
2018/11/07,11:20,0.305,0.188,0.302,0.289,0.275,0.151,0.093,north-northeast,6.8,No
2018/11/07,11:30,0.306,0.187,0.301,0.286,0.278,0.151,0.093,north,7.4,No
2018/11/07,11:40,0.307,0.188,0.303,0.289,0.277,0.152,0.093,north,6.0,No
2018/11/07,11:50,0.305,0.187,0.300,0.290,0.277,0.152,0.093,north,6.9,No
2018/11/07,12:00,0.308,0.187,0.303,0.288,0.280,0.152,0.093,north,6.6,No
2018/11/07,12:10,0.306,0.189,0.302,0.288,0.277,0.152,0.092,north-northeast,6.8,No
2018/11/07,12:20,0.308,0.188,0.303,0.289,0.279,0.152,0.093,north-northeast,5.0,No
2018/11/07,12:30,0.305,0.188,0.301,0.289,0.279,0.152,0.092,north,5.5,No
2018/11/07,12:40,0.308,0.189,0.303,0.290,0.277,0.153,0.092,north,5.8,No
2018/11/07,12:50,0.306,0.189,0.299,0.289,0.280,0.154,0.094,north,6.0,No
2018/11/07,13:00,0.309,0.187,0.304,0.290,0.277,0.152,0.093,north,5.5,No
2018/11/07,13:10,0.309,0.189,0.301,0.292,0.280,0.154,0.093,north,4.1,No
2018/11/07,13:20,0.309,0.190,0.303,0.290,0.279,0.152,0.093,north,6.5,No
2018/11/07,13:30,0.309,0.189,0.301,0.291,0.279,0.152,0.093,north,5.3,No
2018/11/07,13:40,0.306,0.188,0.303,0.290,0.280,0.152,0.093,north,4.9,No
2018/11/07,13:50,0.309,0.190,0.302,0.291,0.276,0.152,0.093,north,4.9,No
2018/11/07,14:00,0.307,0.188,0.303,0.289,0.280,0.152,0.093,north,4.7,No
2018/11/07,14:10,0.308,0.189,0.300,0.291,0.277,0.152,0.093,north,5.8,No
2018/11/07,14:20,0.306,0.188,0.304,0.291,0.280,0.152,0.093,north,5.6,No
2018/11/07,14:30,0.308,0.189,0.302,0.289,0.278,0.152,0.092,north-northeast,2.4,No
2018/11/07,14:40,0.307,0.188,0.304,0.291,0.279,0.151,0.093,north,7.4,No
2018/11/07,14:50,0.309,0.189,0.302,0.288,0.278,0.150,0.093,north,4.7,No
2018/11/07,15:00,0.308,0.188,0.303,0.293,0.279,0.150,0.093,north,3.8,No
2018/11/07,15:10,0.309,0.190,0.302,0.289,0.278,0.150,0.092,north-northeast,3.4,No
2018/11/07,15:20,0.307,0.188,0.304,0.292,0.278,0.150,0.093,north,5.1,No
2018/11/07,15:30,0.309,0.190,0.303,0.291,0.280,0.150,0.092,north,2.9,No
2018/11/07,15:40,0.308,0.189,0.304,0.292,0.279,0.149,0.093,north,5.7,No
2018/11/07,15:50,0.308,0.189,0.302,0.290,0.279,0.150,0.092,north,5.0,No
2018/11/07,16:00,0.308,0.190,0.304,0.292,0.279,0.150,0.093,north,2.8,No
2018/11/07,16:10,0.309,0.190,0.303,0.289,0.281,0.150,0.093,north,3.4,No
2018/11/07,16:20,0.308,0.190,0.302,0.292,0.279,0.151,0.093,north,3.6,No
2018/11/07,16:30,0.307,0.189,0.302,0.290,0.280,0.150,0.093,north,3.2,No
2018/11/07,16:40,0.307,0.190,0.304,0.292,0.279,0.152,0.093,north,3.7,No
2018/11/07,16:50,0.307,0.187,0.304,0.291,0.280,0.153,0.094,north,3.2,No
2018/11/07,17:00,0.309,0.189,0.304,0.292,0.280,0.152,0.093,north,4.3,No
2018/11/07,17:10,0.308,0.189,0.304,0.290,0.279,0.154,0.093,north,6.0,No
2018/11/07,17:20,0.309,0.189,0.302,0.291,0.278,0.153,0.093,north,5.5,No
2018/11/07,17:30,0.308,0.189,0.304,0.292,0.279,0.152,0.093,north,5.9,No
2018/11/07,17:40,0.309,0.189,0.302,0.292,0.281,0.153,0.093,north,6.2,No
2018/11/07,17:50,0.308,0.189,0.305,0.292,0.278,0.153,0.094,north,5.9,No
2018/11/07,18:00,0.310,0.189,0.304,0.292,0.280,0.153,0.093,north,5.8,No
2018/11/07,18:10,0.308,0.190,0.304,0.293,0.279,0.152,0.093,north-northwest,5.9,No
2018/11/07,18:20,0.308,0.190,0.303,0.290,0.280,0.153,0.094,north,6.2,No
2018/11/07,18:30,0.309,0.189,0.303,0.293,0.280,0.153,0.094,north,6.1,No
2018/11/07,18:40,0.309,0.190,0.304,0.292,0.280,0.153,0.093,north,6.6,No
2018/11/07,18:50,0.310,0.189,0.303,0.291,0.279,0.153,0.093,north,6.1,No
2018/11/07,19:00,0.307,0.190,0.304,0.291,0.280,0.153,0.094,north-northwest,6.0,No
2018/11/07,19:10,0.310,0.189,0.303,0.290,0.280,0.154,0.094,north-northwest,6.7,No
2018/11/07,19:20,0.308,0.189,0.304,0.293,0.279,0.154,0.093,north-northwest,7.0,No
2018/11/07,19:30,0.309,0.189,0.304,0.290,0.281,0.154,0.093,north-northwest,7.0,No
2018/11/07,19:40,0.308,0.190,0.305,0.292,0.279,0.152,0.093,north-northwest,5.8,No
2018/11/07,19:50,0.310,0.191,0.305,0.290,0.281,0.152,0.095,north-northwest,6.7,No
2018/11/07,20:00,0.308,0.189,0.303,0.292,0.279,0.153,0.094,north-northwest,7.1,No
2018/11/07,20:10,0.309,0.190,0.304,0.292,0.280,0.153,0.093,north,6.8,No
2018/11/07,20:20,0.310,0.190,0.303,0.292,0.280,0.152,0.094,north-northwest,7.3,No
2018/11/07,20:30,0.308,0.190,0.303,0.293,0.281,0.153,0.095,north,7.6,No
2018/11/07,20:40,0.311,0.191,0.304,0.291,0.281,0.153,0.094,north,7.8,No
2018/11/07,20:50,0.309,0.189,0.303,0.292,0.279,0.153,0.094,north,7.4,No
2018/11/07,21:00,0.310,0.189,0.305,0.291,0.282,0.153,0.094,north,7.5,No
2018/11/07,21:10,0.310,0.189,0.304,0.290,0.279,0.153,0.094,north-northwest,7.7,No
2018/11/07,21:20,0.310,0.189,0.304,0.292,0.280,0.153,0.094,north-northwest,7.7,No
2018/11/07,21:30,0.309,0.191,0.305,0.291,0.280,0.153,0.094,north,8.1,No
2018/11/07,21:40,0.308,0.190,0.304,0.292,0.279,0.154,0.094,north-northwest,7.8,No
2018/11/07,21:50,0.311,0.190,0.305,0.292,0.280,0.154,0.094,north-northwest,8.8,No
2018/11/07,22:00,0.308,0.189,0.303,0.291,0.279,0.153,0.094,north,8.1,No
2018/11/07,22:10,0.310,0.189,0.304,0.292,0.281,0.154,0.094,north-northwest,8.3,No
2018/11/07,22:20,0.308,0.191,0.304,0.293,0.279,0.154,0.094,north-northwest,8.8,No
2018/11/07,22:30,0.309,0.189,0.303,0.291,0.279,0.152,0.095,north,9.2,No
2018/11/07,22:40,0.311,0.190,0.305,0.293,0.282,0.153,0.094,north,8.8,No
2018/11/07,22:50,0.307,0.190,0.303,0.290,0.279,0.153,0.093,north,8.4,No
2018/11/07,23:00,0.310,0.189,0.305,0.293,0.281,0.154,0.095,north,8.4,No
2018/11/07,23:10,0.308,0.190,0.303,0.292,0.279,0.154,0.094,north,7.8,No
2018/11/07,23:20,0.310,0.189,0.303,0.291,0.279,0.154,0.093,north-northwest,7.5,No
2018/11/07,23:30,0.309,0.190,0.304,0.292,0.280,0.153,0.093,north-northwest,7.1,No
2018/11/07,23:40,0.309,0.189,0.303,0.291,0.279,0.153,0.093,north,7.8,No
2018/11/07,23:50,0.310,0.190,0.305,0.292,0.280,0.155,0.094,north-northwest,6.1,No
